Weather History for Aitkin, MN

Change the Weather History Date:

Wednesday, May 13, 2009

  Actual Average Record
Temperature  
Mean Temperature 63 °F -  
Max Temperature 71 °F 64 °F 85 °F (1977)
Min Temperature 55 °F 39 °F 23 °F (1997)
Degree Days  
Heating Degree Days 2    
Growing Degree Days 13 (Base 50)    
Moisture  
Dew Point 52 °F    
Average Humidity 73    
Maximum Humidity 94    
Minimum Humidity 38    
Precipitation  
Precipitation 0.02 in - - ()
Sea Level Pressure  
Sea Level Pressure 29.48 in    
Wind  
Wind Speed 14 mph (SSW)    
Max Wind Speed 23 mph    
Max Gust Speed 34 mph    
Visibility 8 miles    
Events Rain    
Averages and records for this station are not official NWS values.
T = Trace of Precipitation, MM = Missing Value Source: NWS Daily Summary

Daily Weather History Graph

Daily Weather History Graph

Search for Another Location

Airport:

Trip Planner

Search our weather history database for the weather conditions in past years. The results will help you decide how hot, cold, wet, or windy it might be!

Date:

Astronomy

May. 13, 2009 Rise Set
Actual Time 5:42 AM CDT 8:39 PM CDT
Civil Twilight 5:07 AM CDT 9:15 PM CDT
Nautical Twilight 4:22 AM CDT 10:00 PM CDT
Astronomical Twilight 3:28 AM CDT 10:55 PM CDT
Moon 12:26 AM CDT (5/13) 8:46 AM CDT (5/13)
Length of Visible Light 16h 07m
Length of Day
14h 56m
Waning Gibbous, 82% of the Moon is Illuminated
May 13
Waning Gibbous
May 17
Last Quarter
May 24
New
May 30
First Quarter
Jun 7
Full

Hourly Weather History & Observations

Time (CDT) Temp. Windchill Dew Point Humidity Pressure Visibility Wind Dir Wind Speed Gust Speed Precip Events Conditions
12:15 AM 57.2 °F - 55.4 °F 94% 29.59 in 5.0 mi South 11.5 mph 19.6 mph N/A   Drizzle
12:35 AM 55.4 °F - 53.6 °F 94% 29.59 in 5.0 mi South 13.8 mph 18.4 mph N/A   Heavy Drizzle
12:55 AM 55.4 °F - 53.6 °F 94% 29.58 in 4.0 mi South 16.1 mph 23.0 mph N/A   Drizzle
1:15 AM 55.4 °F - 53.6 °F 94% 29.56 in 4.0 mi SSE 17.3 mph 21.9 mph N/A Rain Rain
1:35 AM 55.4 °F - 53.6 °F 94% 29.55 in 5.0 mi SSE 12.7 mph 19.6 mph N/A Rain Light Rain
1:55 AM 55.4 °F - 53.6 °F 94% 29.55 in 10.0 mi South 16.1 mph 20.7 mph N/A   Overcast
2:15 AM 55.4 °F - 53.6 °F 94% 29.55 in 10.0 mi South 16.1 mph 23.0 mph N/A   Overcast
2:35 AM 55.4 °F - 53.6 °F 94% 29.55 in 10.0 mi South 18.4 mph 27.6 mph N/A Rain Rain
2:55 AM 55.4 °F - 53.6 °F 94% 29.53 in 5.0 mi South 15.0 mph 21.9 mph N/A Rain Light Rain
3:15 AM 55.4 °F - 53.6 °F 94% 29.53 in 5.0 mi South 16.1 mph 24.2 mph N/A Rain Rain
3:35 AM 55.4 °F - 53.6 °F 94% 29.51 in 7.0 mi SSE 15.0 mph 21.9 mph N/A Rain Light Rain
3:54 AM 55.4 °F - 53.6 °F 94% 29.50 in 4.0 mi SSE 15.0 mph 20.7 mph N/A Rain Light Rain
4:15 AM 55.4 °F - 53.6 °F 94% 29.48 in 4.0 mi SSE 13.8 mph 21.9 mph N/A   Overcast
4:35 AM 55.4 °F - 53.6 °F 94% 29.46 in 5.0 mi SSE 16.1 mph 24.2 mph N/A   Overcast
4:54 AM 55.4 °F - 53.6 °F 94% 29.46 in 4.0 mi SSE 18.4 mph 25.3 mph N/A Rain Rain
5:15 AM 55.4 °F - 53.6 °F 94% 29.42 in 5.0 mi SSE 23.0 mph 34.5 mph N/A Rain Light Rain
5:35 AM 55.4 °F - 53.6 °F 94% 29.43 in 10.0 mi South 18.4 mph 26.5 mph N/A   Overcast
5:55 AM 55.4 °F - 53.6 °F 94% 29.46 in 10.0 mi South 19.6 mph 24.2 mph N/A   Overcast
6:35 AM 55.4 °F - 53.6 °F 94% 29.45 in 4.0 mi South 15.0 mph 24.2 mph N/A Rain Rain
6:55 AM 55.4 °F - 53.6 °F 94% 29.46 in 4.0 mi South 15.0 mph - N/A   Drizzle
7:15 AM 55.4 °F - 53.6 °F 94% 29.45 in 5.0 mi South 12.7 mph - N/A   Light Drizzle
7:35 AM 55.4 °F - 53.6 °F 94% 29.45 in 7.0 mi South 12.7 mph 21.9 mph N/A   Overcast
7:55 AM 55.4 °F - 53.6 °F 94% 29.45 in 7.0 mi South 13.8 mph - N/A   Overcast
8:15 AM 55.4 °F - 53.6 °F 94% 29.45 in 7.0 mi South 12.7 mph - N/A   Overcast
8:35 AM 57.2 °F - 55.4 °F 94% 29.45 in 10.0 mi South 9.2 mph - N/A   Overcast
8:55 AM 57.2 °F - 55.4 °F 94% 29.46 in 7.0 mi South 6.9 mph - N/A   Overcast
9:15 AM 60.8 °F - 57.2 °F 88% 29.45 in 10.0 mi South 9.2 mph - N/A   Mostly Cloudy
9:35 AM 60.8 °F - 59.0 °F 94% 29.44 in 10.0 mi SSW 15.0 mph - N/A   Mostly Cloudy
9:55 AM 60.8 °F - 57.2 °F 88% 29.45 in 10.0 mi WSW 9.2 mph 19.6 mph N/A   Mostly Cloudy
10:15 AM 64.4 °F - 57.2 °F 77% 29.45 in 10.0 mi SW 12.7 mph 17.3 mph N/A   Scattered Clouds
10:35 AM 64.4 °F - 55.4 °F 73% 29.46 in 10.0 mi SW 11.5 mph 18.4 mph N/A   Clear
10:55 AM 66.2 °F - 55.4 °F 68% 29.47 in 10.0 mi WSW 10.4 mph 19.6 mph N/A   Scattered Clouds
11:15 AM 66.2 °F - 55.4 °F 68% 29.46 in 10.0 mi SSW 18.4 mph 24.2 mph N/A   Clear
11:35 AM 68.0 °F - 53.6 °F 60% 29.47 in 10.0 mi WSW 13.8 mph 18.4 mph N/A   Clear
11:55 AM 68.0 °F - 53.6 °F 60% 29.47 in 10.0 mi SW 17.3 mph 21.9 mph N/A   Clear
12:15 PM 68.0 °F - 53.6 °F 60% 29.47 in 10.0 mi SW 13.8 mph 21.9 mph N/A   Clear
12:35 PM 68.0 °F - 53.6 °F 60% 29.46 in 10.0 mi SW 15.0 mph 21.9 mph N/A   Clear
12:55 PM 69.8 °F - 53.6 °F 56% 29.46 in 10.0 mi SW 12.7 mph 21.9 mph N/A   Clear
1:15 PM 69.8 °F - 51.8 °F 53% 29.46 in 10.0 mi SW 12.7 mph 23.0 mph N/A   Clear
1:35 PM 69.8 °F - 51.8 °F 53% 29.46 in 10.0 mi WSW 15.0 mph 21.9 mph N/A   Clear
1:55 PM 71.6 °F - 50.0 °F 46% 29.45 in 10.0 mi SW 18.4 mph 23.0 mph N/A   Scattered Clouds
2:15 PM 71.6 °F - 48.2 °F 43% 29.45 in 10.0 mi SW 19.6 mph 26.5 mph N/A   Clear
2:35 PM 71.6 °F - 48.2 °F 43% 29.45 in 10.0 mi WSW 9.2 mph 23.0 mph N/A   Scattered Clouds
2:55 PM 71.6 °F - 48.2 °F 43% 29.45 in 10.0 mi WSW 11.5 mph 21.9 mph N/A   Unknown
3:15 PM 71.6 °F - 46.4 °F 41% 29.46 in 10.0 mi West 11.5 mph 20.7 mph 0.02 in   Unknown
3:35 PM 71.6 °F - 46.4 °F 41% 29.46 in 10.0 mi WSW 13.8 mph 20.7 mph N/A   Unknown
3:55 PM 71.6 °F - 44.6 °F 38% 29.45 in 10.0 mi WSW 13.8 mph 28.8 mph N/A   Scattered Clouds
4:15 PM 69.8 °F - 44.6 °F 40% 29.46 in 10.0 mi WSW 13.8 mph 25.3 mph N/A   Scattered Clouds
4:35 PM 71.6 °F - 44.6 °F 38% 29.46 in 10.0 mi SW 18.4 mph 27.6 mph N/A   Scattered Clouds
4:55 PM 71.6 °F - 44.6 °F 38% 29.46 in 10.0 mi WSW 15.0 mph 24.2 mph N/A   Scattered Clouds
5:15 PM 69.8 °F - 44.6 °F 40% 29.47 in 10.0 mi West 13.8 mph 23.0 mph N/A   Scattered Clouds
5:35 PM 69.8 °F - 46.4 °F 43% 29.47 in 10.0 mi WSW 12.7 mph 24.2 mph N/A   Scattered Clouds
5:55 PM 66.2 °F - 44.6 °F 46% 29.47 in 10.0 mi WSW 11.5 mph 17.3 mph N/A   Mostly Cloudy
6:15 PM 66.2 °F - 44.6 °F 46% 29.48 in 10.0 mi West 9.2 mph 21.9 mph N/A   Mostly Cloudy
6:35 PM 64.4 °F - 42.8 °F 45% 29.49 in 10.0 mi West 9.2 mph 25.3 mph N/A   Scattered Clouds
6:55 PM 64.4 °F - 44.6 °F 49% 29.49 in 10.0 mi WSW 11.5 mph 20.7 mph N/A   Mostly Cloudy
7:15 PM 59.0 °F - 44.6 °F 59% 29.51 in 10.0 mi West 13.8 mph 26.5 mph N/A   Scattered Clouds
7:35 PM 55.4 °F - 44.6 °F 67% 29.52 in 10.0 mi West 8.1 mph - N/A   Scattered Clouds
7:55 PM 55.4 °F - 44.6 °F 67% 29.52 in 10.0 mi West 9.2 mph - N/A   Scattered Clouds
8:15 PM 55.4 °F - 44.6 °F 67% 29.52 in 10.0 mi West 11.5 mph 20.7 mph N/A   Clear
8:35 PM 55.4 °F - 44.6 °F 67% 29.52 in 10.0 mi WSW 11.5 mph 18.4 mph N/A   Clear
8:55 PM 53.6 °F - 44.6 °F 72% 29.52 in 10.0 mi WSW 12.7 mph 20.7 mph N/A   Clear
9:15 PM 51.8 °F - 44.6 °F 76% 29.53 in 10.0 mi WSW 11.5 mph 25.3 mph N/A   Clear
9:35 PM 51.8 °F - 42.8 °F 71% 29.54 in 10.0 mi West 9.2 mph 21.9 mph N/A   Clear
9:55 PM 51.8 °F - 44.6 °F 76% 29.55 in 10.0 mi West 12.7 mph 20.7 mph N/A   Scattered Clouds
10:15 PM 50.0 °F - 44.6 °F 82% 29.55 in 10.0 mi West 15.0 mph 21.9 mph N/A   Mostly Cloudy
10:35 PM 48.2 °F - 44.6 °F 87% 29.55 in 10.0 mi West 5.8 mph 20.7 mph N/A Rain Light Rain
10:55 PM 46.4 °F 42.9 °F 44.6 °F 93% 29.54 in 10.0 mi SW 6.9 mph - N/A   Overcast
11:15 PM 46.4 °F 42.9 °F 44.6 °F 93% 29.55 in 10.0 mi West 6.9 mph - N/A   Mostly Cloudy
11:35 PM 48.2 °F - 46.4 °F 93% 29.55 in 10.0 mi West 6.9 mph - N/A   Scattered Clouds
11:55 PM 48.2 °F - 46.4 °F 93% 29.56 in 10.0 mi West 8.1 mph 19.6 mph N/A   Overcast